Wind_Speed
60 59 61 62 57 48 49 46 52 51 59 54 56 56 56 59 62 64 65 68 69 69 70 70 71 73 74 75 76 77 78 80 80 79 77 77 76 73 72 71 71 70 70 70
69 66 63 63 55 55 55 56 55 55 55 57 60 63 64 66 68 69 69 67 66 67 68 69 71 72 74 75 77 79 79 77 78 79 77 75 75 76 76 77 79 79 79 77
75 71 70 68 63 59 59 56 57 60 61 65 67 65 64 66 67 66 66 66 66 68 70 71 72 74 76 77 78 79 79 78 76 75 75 77 79 81 83 84 84 84 82 79
73 72 72 67 64 63 66 65 64 63 64 67 66 65 65 67 67 67 69 69 69 70 72 74 75 77 77 77 78 77 76 76 77 78 80 83 86 86 85 83 80 76 72 68
68 64 66 68 67 65 67 68 65 65 66 66 67 69 69 68 68 71 72 73 72 72 72 72 73 74 76 76 75 76 77 78 82 86 88 87 85 80 74 72 68 65 61 57
66 70 73 70 66 65 66 70 67 66 66 68 69 69 69 71 72 71 70 69 69 71 71 71 74 76 76 74 76 80 84 86 88 86 83 78 73 68 63 58 55 53 52 53
71 73 74 66 67 67 68 64 67 69 68 66 67 68 69 68 66 64 65 68 68 70 73 73 75 75 77 80 85 87 85 82 77 73 70 66 61 54 49 49 50 49 52 53
67 66 66 64 64 66 68 67 68 67 66 66 65 63 61 61 63 66 67 67 70 74 74 72 74 80 84 85 83 76 74 71 68 63 57 52 48 46 46 46 44 45 46 44
63 64 63 65 66 67 67 65 62 65 66 65 59 56 59 64 65 64 67 71 74 73 72 77 83 83 78 70 66 67 67 63 55 50 48 46 46 44 44 46 43 44 45 39
66 60 62 59 59 62 64 67 66 63 59 53 54 62 62 63 61 64 66 67 73 78 79 74 67 61 60 62 65 63 56 49 47 46 44 43 42 43 44 41 45 43 39 33
61 61 64 66 67 65 60 57 53 50 50 51 53 54 56 56 61 68 71 72 69 63 60 56 56 59 61 60 55 49 46 45 44 42 41 42 43 43 45 42 41 38 33 29
61 61 62 62 59 56 54 52 50 52 52 51 56 59 62 62 62 64 60 54 53 54 57 57 55 53 52 49 48 46 44 42 41 42 43 44 44 45 41 39 35 31 28 24
53 51 52 50 51 55 58 57 51 50 50 52 56 58 55 54 61 47 49 54 58 58 57 54 51 47 48 46 45 44 41 41 44 46 44 41 34 29 31 31 30 27 21 18
47 49 48 48 44 43 44 46 48 50 51 53 55 56 57 56 43 48 53 57 60 58 53 45 44 46 45 43 40 41 44 44 38 32 28 25 27 26 24 22 21 23 19 11
39 41 42 41 40 41 47 51 52 54 53 52 51 47 39 41 46 50 55 58 54 45 40 40 43 42 40 38 40 44 38 31 29 25 23 24 22 21 18 17 15 15 15 9
34 36 36 37 40 44 45 45 44 41 38 32 32 37 39 44 46 49 52 50 41 36 38 41 40 37 36 36 41 35 30 26 25 21 21 20 17 18 17 15 13 11 10 8
29 30 32 29 31 32 35 35 32 30 24 26 33 37 39 42 45 47 46 42 37 36 39 39 37 34 32 38 35 30 26 24 22 21 17 16 17 16 14 11 8 6 5 3
30 30 30 31 27 25 26 27 27 27 27 31 35 39 41 45 45 44 42 36 34 37 39 36 33 32 31 35 31 28 24 21 20 17 17 19 18 14 10 6 5 6 6 2
36 34 33 35 34 32 31 29 30 31 33 36 38 40 43 45 46 43 39 36 33 35 38 35 32 30 30 32 27 26 22 19 17 16 17 19 16 9 5 5 6 7 6 3
37 39 39 39 39 39 37 36 35 36 38 41 43 45 43 44 44 41 37 34 31 33 33 32 28 27 27 29 26 24 22 18 16 18 18 19 13 7 8 8 8 7 4 1
37 38 38 40 43 44 43 42 40 41 41 43 43 42 43 43 41 38 36 30 29 33 33 31 27 25 25 26 24 22 20 17 15 17 18 19 9 7 9 8 8 8 5 2
42 41 40 41 43 46 47 46 45 44 45 45 44 41 43 41 38 35 37 30 26 29 32 30 27 23 24 25 21 20 19 16 14 15 17 15 9 8 8 8 7 7 6 6
42 42 43 43 44 45 46 48 49 50 50 49 47 42 42 39 36 33 30 30 26 27 30 28 26 23 23 23 20 19 17 15 14 15 17 16 12 10 10 10 8 7 6 7
46 46 47 47 47 48 47 47 47 48 47 44 44 41 39 35 34 34 33 28 24 26 29 28 25 24 21 22 19 17 17 15 15 15 17 16 14 12 12 12 10 7 6 7
50 52 53 54 52 48 46 43 43 43 40 37 39 39 40 37 30 29 30 29 26 25 27 28 25 24 20 20 18 16 16 15 14 14 17 17 16 14 13 12 10 8 7 8
55 57 58 58 57 55 50 48 48 44 41 37 39 41 39 35 31 29 28 28 27 25 26 26 24 23 19 19 18 16 16 14 14 13 14 16 16 15 13 13 13 12 11 9
57 59 59 57 57 56 54 49 41 39 40 39 38 39 35 30 29 28 26 25 25 24 23 24 23 21 19 17 18 16 15 13 12 12 12 14 15 15 15 14 15 16 14 12
Wind_Direction
302 305 304 302 301 303 300 300 294 298 294 295 293 291 293 294 292 290 290 291 293 293 294 294 293 293 293 293 290 288 286 286 287 287 289 291 293 293 293 293 291 289 288 288
300 303 302 300 303 297 297 296 296 292 291 288 287 287 290 290 290 290 291 292 292 292 292 291 289 287 286 284 283 284 285 288 291 293 294 294 295 295 295 295 295 294 293 290
301 302 300 300 303 303 301 301 298 294 293 290 289 292 292 292 293 293 294 293 292 291 289 287 284 282 282 283 285 289 293 295 295 295 296 297 298 298 298 297 296 294 292 288
297 297 298 300 299 300 300 299 296 297 295 294 296 296 295 296 293 293 291 290 288 286 285 284 284 286 288 291 295 297 297 296 296 297 298 300 301 301 299 298 295 292 289 286
293 292 293 294 298 299 298 297 298 297 295 294 293 291 290 289 288 286 285 285 285 285 289 291 293 296 298 299 297 295 296 298 300 302 303 303 302 301 298 296 294 292 289 286
295 297 297 300 300 297 295 294 295 292 290 289 289 288 290 289 289 290 291 293 294 296 300 300 298 298 298 296 298 299 302 303 304 304 304 304 302 299 297 295 293 292 289 286
299 299 301 300 297 298 295 295 293 290 290 291 290 291 293 296 298 297 296 298 298 298 300 298 297 297 299 301 302 304 304 304 305 304 303 301 300 298 297 297 298 294 291 290
298 296 293 295 292 288 288 286 288 290 291 292 296 301 302 300 297 295 294 291 293 295 296 295 297 299 301 302 302 303 304 306 306 305 302 301 300 299 298 299 296 302 302 295
287 286 286 285 284 284 286 290 293 296 299 302 301 295 291 291 292 291 290 289 292 293 294 298 299 300 301 302 302 303 305 306 305 303 302 301 301 301 299 298 299 300 303 298
287 289 287 289 290 291 291 294 297 297 296 290 282 282 286 288 289 289 292 292 293 297 301 303 303 302 301 302 305 306 305 305 304 304 302 301 301 302 301 297 301 299 297 296
288 287 288 290 291 294 296 297 296 291 287 285 287 287 287 287 289 294 298 300 304 307 308 306 305 307 307 306 307 308 308 307 305 303 300 298 297 300 301 301 299 297 293 289
287 289 291 293 295 296 297 297 295 294 294 292 290 293 296 297 298 303 308 311 312 314 312 311 311 311 310 311 311 311 310 308 306 305 303 302 300 301 299 300 298 295 293 287
295 296 297 297 294 294 295 297 295 292 289 288 289 294 300 304 311 311 313 316 317 315 312 311 312 312 313 315 314 314 312 309 308 306 304 303 303 300 300 301 301 300 301 294
295 296 297 298 299 298 297 296 296 296 297 298 302 306 308 308 308 311 313 315 314 313 312 312 313 315 317 317 316 316 313 312 312 312 310 307 305 305 304 300 295 298 309 307
301 299 297 297 296 293 291 294 298 301 302 304 306 309 309 308 311 312 312 314 316 316 316 316 317 318 319 318 320 319 319 318 317 317 312 313 314 311 308 307 304 296 300 309
301 302 300 298 296 301 304 304 305 309 308 312 316 315 313 313 313 313 315 319 321 321 319 319 320 322 320 322 325 325 323 319 322 321 318 318 318 315 313 309 303 295 296 298
302 298 291 296 302 309 312 315 319 317 313 318 319 319 319 318 317 318 322 321 320 322 322 321 322 321 321 327 329 328 327 326 326 325 324 324 321 321 320 317 317 321 319 300
309 307 296 300 305 311 319 327 330 325 322 320 317 318 324 323 322 323 323 320 321 324 324 325 324 323 324 330 331 330 328 327 326 324 325 324 326 327 327 334 346 339 340 339
314 312 300 297 300 305 309 312 316 317 319 318 318 320 321 322 325 325 325 322 321 325 326 326 324 323 329 333 332 330 326 325 326 327 328 333 334 337 345 354 349 349 350 8
310 307 304 296 297 300 303 307 312 312 314 317 318 321 321 321 322 326 325 322 319 325 327 326 324 323 329 334 332 332 326 326 327 328 335 335 329 337 349 349 353 349 342 28
300 298 299 293 289 293 297 301 305 307 311 314 318 320 321 316 319 326 324 322 318 324 330 330 326 325 332 336 333 330 323 320 326 332 337 335 322 326 343 342 341 338 319 284
298 297 297 297 293 289 291 293 296 299 304 310 313 314 317 314 317 327 325 321 317 324 332 329 327 323 333 337 333 330 324 320 332 337 340 335 307 311 330 338 339 329 311 281
298 298 297 298 296 293 291 290 289 291 295 301 304 307 310 312 313 321 326 319 316 320 330 328 325 320 331 336 333 330 323 319 331 341 341 337 316 295 296 307 317 311 294 287
295 296 296 298 297 295 293 292 292 292 294 296 298 299 305 308 313 316 323 323 315 318 327 327 324 320 326 333 332 328 320 317 330 343 341 342 330 301 287 289 300 303 283 277
297 298 300 300 301 296 292 293 295 293 291 293 295 297 303 305 306 308 316 320 315 311 317 324 322 320 321 331 329 324 317 315 327 341 343 342 335 316 292 285 290 290 280 274
298 300 301 301 301 301 297 294 295 289 282 284 288 290 296 298 300 305 309 312 314 309 309 316 318 318 314 328 327 321 314 312 319 341 344 343 343 339 317 290 282 282 281 270
297 299 300 300 300 301 302 300 294 288 283 281 280 285 286 287 291 295 296 303 307 305 300 306 315 313 312 318 326 319 312 310 308 332 342 342 344 347 346 331 297 279 280 280
Height
5703 5700 5692 5684 5681 5680 5672 5668 5658 5660 5650 5647 5638 5633 5628 5624 5617 5610 5603 5596 5589 5582 5575 5567 5561 5555 5548 5540 5531 5524 5517 5508 5500 5494 5490 5485 5480 5477 5473 5469 5466 5464 5462 5460
5684 5682 5676 5668 5669 5664 5658 5652 5646 5641 5637 5627 5621 5616 5611 5604 5597 5590 5584 5578 5572 5565 5557 5549 5541 5535 5528 5519 5509 5502 5495 5488 5482 5476 5471 5466 5460 5455 5450 5444 5440 5436 5432 5429
5664 5661 5655 5650 5647 5642 5637 5633 5626 5621 5618 5609 5603 5599 5592 5584 5578 5573 5565 5557 5550 5544 5536 5527 5518 5511 5505 5498 5490 5484 5478 5471 5463 5457 5452 5444 5438 5431 5423 5416 5411 5406 5401 5395
5651 5643 5639 5632 5629 5624 5620 5614 5605 5601 5595 5588 5583 5576 5568 5563 5556 5550 5543 5536 5528 5522 5514 5504 5496 5490 5485 5479 5473 5467 5459 5451 5443 5436 5429 5420 5411 5401 5393 5386 5380 5374 5368 5363
5634 5628 5626 5621 5616 5610 5602 5600 5591 5585 5578 5570 5564 5558 5549 5544 5537 5528 5521 5513 5507 5500 5493 5487 5478 5472 5467 5460 5452 5444 5436 5429 5420 5409 5400 5391 5383 5373 5364 5356 5351 5345 5341 5338
5617 5607 5603 5603 5596 5588 5582 5578 5572 5564 5557 5550 5543 5535 5527 5519 5513 5506 5499 5491 5486 5481 5475 5468 5460 5452 5445 5438 5429 5419 5412 5403 5393 5382 5372 5363 5355 5347 5340 5334 5329 5324 5321 5317
5598 5587 5584 5579 5572 5567 5560 5556 5545 5538 5533 5528 5521 5516 5509 5502 5495 5488 5482 5476 5469 5464 5459 5449 5440 5430 5423 5414 5404 5396 5387 5378 5368 5358 5348 5341 5334 5327 5322 5317 5312 5307 5302 5297
5579 5571 5566 5561 5553 5547 5539 5533 5527 5522 5516 5510 5504 5498 5492 5486 5479 5473 5466 5459 5452 5446 5441 5433 5422 5411 5404 5394 5383 5373 5364 5355 5347 5338 5329 5323 5317 5312 5307 5301 5296 5291 5284 5277
5563 5556 5549 5539 5535 5529 5522 5517 5513 5507 5501 5494 5488 5483 5478 5472 5464 5457 5450 5444 5436 5428 5423 5416 5403 5392 5383 5372 5363 5355 5347 5338 5330 5322 5315 5308 5303 5298 5293 5286 5281 5276 5270 5263
5539 5541 5528 5524 5517 5512 5508 5503 5497 5491 5484 5479 5473 5466 5463 5456 5450 5444 5437 5428 5420 5412 5403 5394 5383 5373 5363 5355 5346 5338 5330 5323 5315 5308 5302 5296 5290 5285 5279 5273 5267 5262 5257 5252
5523 5519 5514 5509 5502 5498 5491 5486 5482 5476 5470 5463 5458 5453 5447 5443 5436 5427 5419 5410 5401 5390 5382 5374 5366 5358 5347 5338 5329 5323 5316 5309 5302 5296 5290 5284 5278 5272 5266 5260 5254 5249 5245 5241
5507 5503 5498 5494 5489 5482 5477 5472 5466 5460 5456 5449 5441 5437 5432 5427 5417 5409 5401 5393 5385 5376 5366 5358 5350 5342 5332 5324 5316 5310 5303 5296 5289 5283 5277 5271 5265 5260 5252 5247 5242 5238 5235 5232
5493 5488 5484 5480 5474 5469 5464 5457 5450 5444 5438 5435 5429 5423 5415 5410 5403 5394 5387 5379 5371 5362 5353 5344 5337 5329 5321 5313 5305 5298 5291 5284 5278 5271 5264 5258 5252 5248 5244 5237 5232 5229 5226 5224
5482 5477 5472 5465 5460 5454 5448 5442 5436 5431 5425 5420 5415 5409 5402 5397 5391 5384 5376 5368 5358 5349 5341 5333 5326 5317 5310 5303 5296 5288 5280 5273 5266 5260 5254 5249 5245 5240 5236 5232 5228 5224 5221 5220
5470 5464 5459 5454 5448 5441 5435 5430 5426 5421 5415 5409 5404 5399 5393 5388 5382 5374 5365 5356 5346 5337 5330 5324 5316 5309 5301 5294 5287 5278 5271 5264 5258 5253 5248 5243 5239 5234 5231 5227 5224 5221 5219 5217
5458 5453 5448 5443 5436 5431 5426 5420 5415 5410 5405 5401 5396 5391 5385 5378 5372 5363 5355 5344 5336 5330 5323 5315 5308 5301 5294 5287 5279 5271 5264 5258 5253 5248 5243 5239 5235 5231 5227 5224 5221 5219 5217 5216
5449 5446 5440 5436 5429 5424 5417 5411 5405 5399 5396 5393 5388 5382 5376 5369 5362 5354 5345 5335 5328 5321 5315 5307 5300 5294 5287 5281 5272 5265 5259 5253 5249 5244 5239 5236 5232 5228 5224 5221 5219 5217 5216 5216
5438 5434 5429 5424 5420 5416 5410 5404 5398 5393 5388 5384 5380 5373 5367 5359 5351 5344 5335 5328 5321 5314 5307 5300 5293 5287 5281 5275 5267 5261 5255 5250 5246 5241 5237 5233 5228 5224 5221 5219 5218 5217 5216 5215
5427 5424 5419 5414 5409 5406 5402 5397 5391 5386 5381 5376 5371 5364 5357 5350 5341 5334 5327 5319 5313 5308 5300 5294 5287 5282 5276 5269 5263 5258 5253 5248 5243 5239 5235 5230 5226 5223 5221 5219 5218 5217 5216 5216
5418 5413 5408 5404 5401 5396 5392 5387 5383 5377 5372 5367 5361 5356 5349 5341 5333 5326 5319 5312 5306 5302 5295 5288 5282 5277 5271 5265 5259 5254 5250 5245 5241 5236 5232 5228 5224 5222 5220 5218 5217 5216 5215 5215
5408 5403 5398 5394 5389 5384 5381 5377 5373 5368 5363 5357 5352 5347 5341 5333 5326 5318 5311 5306 5300 5295 5288 5282 5276 5271 5266 5261 5256 5251 5247 5243 5238 5234 5229 5225 5222 5221 5219 5217 5216 5215 5214 5214
5395 5391 5387 5382 5378 5374 5369 5365 5361 5357 5352 5347 5341 5337 5331 5324 5317 5312 5302 5298 5294 5289 5283 5277 5271 5266 5262 5257 5252 5248 5244 5240 5236 5231 5227 5223 5221 5219 5217 5216 5214 5213 5212 5212
5382 5378 5374 5370 5366 5361 5356 5352 5348 5344 5341 5336 5331 5327 5321 5315 5307 5303 5299 5292 5287 5283 5277 5272 5266 5262 5257 5253 5248 5244 5240 5237 5233 5228 5225 5221 5218 5216 5215 5214 5213 5212 5211 5210
5367 5363 5359 5355 5351 5347 5343 5338 5334 5330 5326 5323 5318 5314 5310 5307 5300 5293 5289 5284 5279 5275 5271 5267 5261 5257 5253 5248 5244 5241 5237 5234 5230 5226 5222 5219 5215 5213 5212 5211 5209 5208 5208 5207
5351 5347 5342 5338 5334 5330 5326 5323 5319 5315 5313 5309 5305 5301 5298 5293 5291 5286 5281 5277 5272 5269 5265 5261 5256 5252 5248 5245 5241 5237 5234 5231 5228 5223 5219 5216 5212 5209 5208 5206 5205 5204 5204 5203
5332 5328 5323 5319 5315 5311 5309 5306 5304 5300 5298 5296 5292 5289 5287 5283 5279 5276 5273 5269 5265 5262 5259 5255 5251 5247 5244 5240 5237 5233 5230 5228 5225 5221 5217 5214 5210 5207 5204 5202 5200 5199 5199 5199
5314 5310 5306 5302 5297 5292 5289 5286 5285 5283 5280 5279 5278 5276 5274 5271 5269 5266 5264 5261 5258 5254 5251 5249 5245 5241 5238 5236 5232 5229 5226 5224 5222 5219 5215 5212 5208 5205 5201 5198 5195 5194 5194 5194